Vorticity
14 14 13 11 9 9 11 15 18 18 16 11 6 3 2 5 6 3 3 3 1 2 5 4 2 3 6 5 1 -0 1 3 4 3 1 3 6 8 9 9 8 8 7 4 2 5 8 10 11 10 10 9 7 6 5 6 7 7 6 7 8 9 9 8 6 6 6 6 7 8 9 10 10 10 10 10 10 11 10 10 8 7 6 5 5
14 14 15 14 12 10 9 9 11 14 17 18 16 13 9 7 5 0 -3 -6 -9 -7 0 3 2 3 5 6 6 6 6 5 3 1 2 7 11 11 9 6 4 3 2 3 6 9 10 11 11 9 7 6 6 7 7 7 6 6 7 8 8 8 7 6 6 7 7 8 10 11 11 10 10 10 10 10 10 9 8 7 6 6 6 7 8
15 14 14 15 15 13 11 10 10 10 12 14 16 16 16 17 15 12 9 6 4 4 2 0 2 7 10 9 10 12 12 10 10 12 16 14 8 4 3 2 2 4 6 9 11 10 10 10 10 8 7 8 9 9 8 7 7 8 9 9 8 7 7 8 9 10 10 11 11 10 10 10 10 10 10 9 7 6 7 7 8 10 10 10 11
12 14 15 15 16 16 13 11 10 11 11 10 13 15 15 13 12 12 12 11 12 15 19 24 26 22 20 20 20 17 12 10 11 12 10 4 -1 -1 2 4 5 6 7 8 10 11 11 11 11 10 9 10 10 9 8 9 10 9 8 7 7 8 9 10 10 11 11 11 11 11 11 11 10 8 7 7 7 8 9 9 11 12 11 12 11
10 8 12 17 18 17 17 14 8 9 15 13 9 11 14 13 12 11 7 2 -4 -9 -5 8 12 5 4 10 12 13 12 10 6 -1 -5 -3 1 5 9 11 13 13 12 13 15 15 15 14 13 12 12 11 10 9 9 8 7 7 7 8 9 9 10 10 11 11 11 11 12 11 10 9 8 7 7 7 9 10 10 10 10 10 11 11 11
16 6 2 9 16 18 19 17 6 -0 10 21 19 14 11 11 14 18 18 15 7 -3 -7 -3 1 2 6 8 8 8 8 6 2 -2 0 6 11 15 17 18 19 18 17 17 17 16 15 14 12 11 10 8 7 7 7 7 7 8 9 9 10 10 10 11 11 11 10 9 9 8 8 7 7 8 8 7 8 8 9 10 10 10 10 10 10
22 17 7 1 5 12 20 27 21 4 -2 7 17 21 22 21 17 15 16 18 19 19 16 13 13 13 12 8 7 7 6 7 9 12 16 20 22 24 23 22 21 20 19 18 17 15 14 12 10 9 8 8 9 9 9 10 10 10 10 11 11 11 11 10 10 8 7 7 7 7 7 7 7 8 8 9 9 9 8 8 8 9 9 8 8
19 23 20 11 1 -1 6 19 29 26 16 5 0 1 8 15 17 16 14 14 12 12 12 10 11 16 21 20 18 17 17 19 23 26 27 27 26 25 23 22 21 20 18 16 14 11 10 9 9 9 9 10 10 11 11 11 11 11 12 11 11 10 9 8 8 7 6 6 6 6 7 7 8 8 9 10 10 10 10 9 9 8 7 6 7
17 18 21 22 14 3 -2 -1 3 12 19 21 18 13 8 6 5 5 7 10 10 8 10 11 13 19 29 34 35 34 34 33 32 30 27 24 21 19 17 16 15 13 10 9 8 7 8 9 10 11 11 11 11 12 12 11 11 11 10 9 9 8 7 7 7 7 7 6 6 7 7 8 9 9 10 10 10 10 10 9 9 9 6 5 6
17 18 18 20 21 17 13 8 3 0 2 7 13 18 22 23 23 21 21 25 28 27 27 27 26 28 31 32 31 29 26 23 20 17 14 12 11 10 10 9 8 7 6 6 7 9 10 11 11 11 11 11 11 10 10 10 9 8 8 7 7 7 7 6 6 5 6 7 8 9 10 10 10 10 9 10 9 9 8 8 7 7 6 5 7
15 18 19 19 20 22 24 24 23 20 15 12 12 13 18 23 27 28 26 25 26 26 25 24 22 20 18 15 13 10 8 8 7 7 6 7 7 8 8 8 7 7 7 7 9 10 11 11 11 10 10 10 9 9 8 8 7 7 7 7 7 6 6 6 6 7 8 10 11 11 11 10 10 10 9 9 9 7 7 7 6 6 7 7 9
13 13 14 17 17 16 17 18 21 23 22 22 23 23 22 20 18 16 14 13 13 12 11 10 9 8 7 6 5 5 5 5 6 7 8 8 9 9 8 8 8 8 8 9 10 11 11 10 10 9 9 9 9 9 9 8 8 7 7 6 6 6 6 7 9 11 12 12 12 11 10 9 8 8 8 8 7 6 7 7 7 8 9 11 14
12 12 10 11 13 11 6 4 7 10 13 14 14 14 14 13 11 10 10 10 10 10 9 8 7 6 6 6 6 7 8 8 8 8 9 9 9 9 9 9 9 10 11 12 12 12 11 11 10 10 9 9 8 8 7 7 7 6 6 6 7 8 9 10 11 11 11 10 9 8 8 7 7 7 7 6 6 6 7 7 8 11 14 17 20
10 12 11 10 11 12 11 8 6 6 7 8 8 8 8 7 8 8 8 8 7 7 7 7 7 8 8 9 10 10 10 9 8 8 9 11 11 11 11 11 12 13 13 12 12 11 10 10 9 9 8 7 7 7 6 6 6 6 7 7 8 10 11 12 11 10 9 7 6 6 6 6 6 6 6 6 6 7 9 10 13 16 19 20 22
10 11 13 13 12 12 13 13 12 11 11 10 9 11 12 12 11 10 10 10 9 9 9 10 10 11 11 11 11 11 11 11 12 12 13 13 12 12 12 12 12 12 11 11 10 9 8 8 7 7 6 6 6 6 6 6 6 7 8 9 10 11 11 10 9 8 7 6 6 5 5 6 6 7 8 8 9 10 13 15 17 20 21 21 22
9 10 11 14 15 15 15 16 14 13 13 12 12 13 13 14 13 13 12 11 10 10 10 10 11 10 10 10 9 10 11 12 13 13 11 11 10 10 10 9 9 9 9 9 8 8 8 7 7 6 6 5 5 6 6 7 8 9 10 10 10 10 10 10 9 8 7 7 6 6 6 6 6 7 8 9 10 12 14 16 18 19 19 19 20
10 11 12 14 15 16 15 15 14 13 13 13 11 10 10 10 10 10 12 12 11 11 10 10 9 9 9 9 9 9 9 9 9 10 9 9 9 8 8 8 8 8 7 7 7 7 7 6 6 6 6 6 7 7 8 9 9 10 10 10 10 10 10 10 9 9 8 7 7 6 6 6 7 9 10 12 13 15 16 16 17 17 18 17 17
11 11 13 14 14 14 12 11 10 11 12 12 11 10 9 8 8 8 9 10 10 10 10 9 9 8 8 8 8 8 8 8 9 9 10 9 7 7 8 8 8 8 8 7 7 7 6 6 6 6 6 6 7 8 10 10 11 11 12 12 12 12 11 11 10 10 9 8 8 8 8 9 10 12 13 13 15 16 17 18 18 18 18 17 15
9 8 10 12 12 10 9 10 11 11 10 8 6 4 4 6 7 7 9 10 10 9 9 10 9 9 9 8 8 9 9 9 9 10 10 9 8 9 9 9 9 9 8 8 7 7 6 6 6 6 7 8 9 10 11 11 12 12 13 13 13 13 12 12 11 10 10 10 11 11 11 12 12 12 13 14 16 18 19 19 19 18 17 15 13
11 8 8 10 10 9 10 11 11 11 10 7 5 4 4 5 6 6 8 10 9 9 9 9 9 9 9 9 9 9 9 9 9 10 10 9 9 9 9 9 9 8 8 8 7 6 7 6 7 8 9 10 11 11 12 12 12 13 13 12 13 12 12 12 11 11 11 11 12 12 12 14 16 17 19 19 20 20 20 19 18 16 14 12 12
12 11 9 8 8 8 12 13 10 8 6 5 5 5 4 5 6 7 9 10 9 9 9 9 9 9 10 10 10 9 9 9 9 9 9 9 9 8 8 7 7 7 7 7 6 7 8 9 9 10 10 10 11 10 11 12 13 13 12 12 11 10 10 11 10 10 10 11 12 14 15 17 20 20 20 20 20 19 18 16 15 13 12 11 11
8 10 10 9 8 7 8 7 6 7 8 7 7 7 7 8 8 8 9 9 9 10 10 10 10 10 10 9 9 9 9 9 9 8 9 9 8 7 6 5 5 5 5 6 7 8 9 9 10 11 11 11 12 11 11 11 11 11 11 10 9 8 8 8 8 10 12 13 15 17 17 19 20 19 19 18 17 16 15 13 12 11 11 12 12
9 9 8 7 6 6 5 4 7 11 10 8 8 7 7 7 8 9 10 10 11 11 10 9 9 8 9 8 9 10 9 9 9 8 8 8 8 6 5 4 4 5 5 7 7 8 9 9 10 11 11 12 12 12 11 10 10 9 9 8 7 6 6 7 8 10 12 13 15 15 15 17 18 16 16 15 14 13 12 11 11 11 12 13 12
13 12 10 9 8 8 7 6 8 9 7 6 6 6 6 8 9 11 12 12 11 10 8 8 7 8 9 9 9 10 10 10 9 8 7 7 6 6 6 5 6 6 7 8 8 8 9 9 10 10 11 11 11 11 11 10 10 9 8 7 7 6 7 8 9 11 12 13 14 15 15 16 16 14 13 13 12 11 11 11 11 11 12 12 12
13 11 9 8 7 8 7 6 6 5 4 6 7 7 8 10 10 11 11 10 10 9 8 9 10 10 11 11 10 10 9 8 8 7 7 6 6 8 8 8 8 8 8 8 8 8 9 9 10 11 11 11 10 10 10 9 9 8 7 7 7 8 9 10 12 14 15 16 16 16 15 15 14 13 12 12 11 10 10 10 11 11 12 12 10
11 9 8 7 6 6 6 6 7 7 9 10 10 10 10 10 9 9 8 8 8 9 10 11 11 11 11 10 10 9 8 7 7 7 7 7 7 8 9 9 10 10 10 10 9 10 11 11 11 11 10 10 10 9 9 8 7 7 8 8 9 10 11 14 16 16 17 17 16 15 15 14 13 12 12 11 10 9 10 10 10 11 12 10 10
12 11 10 9 9 9 9 9 9 9 10 9 9 9 9 9 9 9 9 10 11 11 11 11 11 10 10 9 8 7 6 6 6 6 7 7 8 8 8 9 9 9 9 10 11 11 12 12 12 11 10 9 9 8 8 8 8 8 9 9 10 12 14 16 17 17 17 16 14 14 14 13 12 12 11 10 9 9 10 10 11 12 11 9 11
11 11 10 9 8 8 8 9 9 8 9 9 9 10 10 10 11 11 11 12 11 10 10 10 9 8 7 7 6 6 6 6 7 7 7 7 7 7 7 6 6 7 8 10 11 12 12 11 11 10 9 9 9 8 8 9 9 9 10 11 13 15 16 18 17 16 15 13 13 13 13 12 11 11 10 10 10 10 10 11 12 11 9 10 15
11 10 10 9 9 9 9 10 10 10 10 10 10 10 10 11 11 11 11 11 10 10 10 9 8 7 6 6 7 7 7 7 7 7 7 7 7 6 6 6 6 7 8 9 10 11 11 10 9 9 9 9 9 9 9 9 8 10 11 13 15 16 17 17 15 14 13 12 12 12 11 11 11 10 10 10 10 10 11 12 12 10 10 14 20
12 12 11 11 11 11 11 11 11 11 11 11 10 10 11 11 11 11 11 11 10 9 8 7 7 7 7 8 8 8 8 7 7 8 8 7 6 6 6 6 6 6 8 10 11 11 11 10 9 8 8 8 8 8 8 8 10 12 14 16 16 16 15 14 13 13 12 11 12 11 11 11 11 10 11 11 10 11 12 11 10 11 14 19 21
10 10 10 11 11 10 10 10 10 10 10 10 11 11 11 11 11 10 10 9 8 8 7 7 7 8 8 8 8 7 7 7 7 8 7 6 6 6 6 6 6 7 9 10 11 12 11 9 8 9 9 9 9 9 10 11 14 15 16 17 16 14 14 13 12 12 12 11 12 11 11 12 12 12 12 11 11 12 12 10 11 15 19 21 20
9 9 10 10 10 10 10 10 10 11 11 11 12 11 11 11 10 9 8 7 6 6 6 7 8 8 8 7 7 7 7 7 8 7 7 7 7 7 6 7 6 7 10 11 12 11 10 9 9 10 10 11 10 11 12 14 15 16 16 16 15 13 13 13 12 12 12 11 11 12 12 13 13 12 11 12 12 12 10 11 16 21 21 20 19
9 9 10 11 11 10 10 10 10 11 11 10 10 10 10 10 9 8 7 6 6 7 7 8 8 8 7 7 7 7 7 7 7 7 7 7 7 7 7 7 6 8 10 11 11 10 9 10 11 11 11 12 12 12 14 15 16 16 16 15 13 12 12 12 12 11 11 11 12 12 13 13 12 12 12 12 11 10 12 17 22 21 20 19 17
9 9 9 10 9 9 9 9 9 9 9 10 10 10 9 8 7 6 6 7 7 8 8 8 8 7 7 6 6 6 6 7 7 7 7 7 7 6 6 6 6 8 10 11 11 11 11 11 12 12 12 12 12 14 15 16 16 16 15 13 12 12 11 11 11 11 11 12 13 13 13 13 12 12 11 10 11 14 19 22 22 21 20 18 15
10 11 10 10 10 11 10 9 9 9 10 11 11 9 8 6 6 7 8 8 8 7 7 8 8 7 6 6 5 6 6 6 6 6 6 6 6 6 5 5 7 9 12 13 13 12 12 12 12 12 12 13 14 15 16 16 15 15 14 13 12 11 11 11 11 11 12 13 14 14 13 12 11 10 11 13 17 21 23 23 22 20 18 16 14
12 11 11 11 11 10 10 10 11 12 12 11 9 7 7 7 8 8 8 7 6 6 7 8 7 6 5 5 6 6 6 6 7 6 6 6 6 5 4 6 9 11 13 14 14 13 12 11 11 12 13 14 15 16 16 16 15 13 13 12 12 11 11 11 11 12 14 15 14 13 11 10 10 11 14 19 23 24 23 22 21 18 15 15 15
12 11 10 10 10 9 10 11 11 10 9 7 7 7 7 7 8 7 6 6 7 7 8 7 6 6 6 6 6 6 6 6 6 6 6 7 6 5 5 8 11 13 13 13 13 12 11 10 12 13 14 15 16 16 16 14 13 12 12 11 11 11 11 11 12 14 15 15 13 10 10 11 12 15 20 24 25 23 22 20 18 15 14 15 15
10 8 8 8 9 10 11 11 9 8 7 7 7 8 7 6 7 6 7 7 8 8 7 6 6 6 6 5 6 6 6 6 6 6 7 6 5 5 7 10 13 13 12 12 13 12 11 13 15 16 16 16 16 15 14 12 12 11 11 11 11 11 11 11 14 15 15 12 10 10 12 14 17 20 25 26 25 23 20 16 14 14 15 16 15
8 8 9 11 11 11 9 8 6 6 7 7 7 7 6 6 7 7 8 8 8 7 7 7 7 7 6 6 6 6 6 6 7 6 6 5 4 5 8 12 14 13 12 12 13 13 14 16 17 16 16 15 15 13 12 12 12 11 11 11 11 10 11 13 16 15 12 10 10 12 15 18 21 26 29 27 24 20 15 12 13 16 17 15 14
9 10 11 11 9 8 6 6 6 7 7 7 7 6 6 7 8 8 8 7 7 6 7 7 7 6 6 6 6 6 6 6 6 6 6 4 4 7 12 14 14 13 12 13 14 15 16 17 16 15 14 14 13 13 12 12 12 11 11 11 10 11 14 16 15 12 9 10 13 16 18 23 28 30 29 24 20 15 11 11 15 17 16 14 13
10 11 10 9 8 7 7 7 7 7 7 7 6 7 8 9 9 9 8 7 6 6 7 7 7 7 6 6 7 7 7 7 7 6 5 4 7 12 16 16 14 12 13 13 14 15 16 16 15 14 14 13 13 12 12 12 12 11 10 10 11 14 16 16 12 9 10 13 16 19 24 29 31 29 24 19 15 11 10 13 16 16 15 14 15
10 10 9 8 8 7 7 8 8 8 8 7 7 8 9 8 8 7 7 6 6 6 6 7 7 6 6 7 8 8 8 8 7 5 5 7 11 15 16 14 12 12 13 14 15 16 17 16 15 14 13 12 12 12 11 11 11 10 10 11 14 16 16 12 9 10 13 15 18 24 29 30 27 23 19 15 11 10 12 16 16 15 15 15 15
9 9 9 9 8 7 7 8 7 7 7 7 8 8 7 7 7 7 7 7 7 7 7 7 7 7 7 8 8 8 8 7 5 4 6 11 15 16 14 13 13 14 15 16 17 17 16 15 14 13 12 11 11 12 11 11 10 10 11 13 16 17 13 9 10 14 15 16 22 28 29 25 21 18 14 10 10 11 14 16 15 15 15 16 15
8 8 8 8 8 8 8 7 6 7 7 7 7 7 7 7 7 7 7 7 7 7 7 7 7 8 8 8 8 8 7 5 4 7 11 15 15 14 14 14 15 16 16 17 17 17 15 14 13 12 11 11 11 11 11 10 10 11 13 16 18 14 9 10 14 15 14 18 25 27 23 19 16 13 10 9 11 13 15 15 15 15 15 15 14
9 8 8 8 7 7 7 6 6 7 7 6 7 7 7 8 8 7 7 7 7 7 8 8 8 9 9 9 9 7 5 5 8 12 16 16 14 14 15 16 17 17 17 16 16 15 13 12 12 11 11 11 11 11 11 11 10 13 17 19 16 9 9 15 17 14 13 20 25 22 18 15 13 10 10 11 13 14 15 15 15 15 15 14 16
9 8 8 8 7 7 7 7 7 7 6 6 7 8 8 8 8 7 7 7 7 8 9 8 9 10 9 9 7 5 5 9 13 16 16 15 14 15 17 17 17 16 16 15 15 13 12 11 11 11 11 11 11 11 11 11 12 16 19 17 11 8 13 18 16 12 14 20 21 17 15 13 11 10 11 12 13 14 15 15 14 14 15 16 18
9 8 8 8 8 8 8 7 7 7 7 8 9 9 8 8 7 7 8 8 8 9 10 10 10 10 8 6 5 7 11 15 16 15 15 15 15 16 17 17 16 16 15 14 13 12 11 11 11 10 10 11 11 11 12 13 15 18 18 13 9 11 17 19 14 11 14 18 17 15 14 12 11 12 13 13 14 15 15 15 14 14 16 18 18
8 8 8 8 8 8 7 7 8 8 9 9 9 8 8 8 8 8 8 9 9 10 10 9 8 6 5 6 10 13 15 15 14 14 15 16 16 17 17 17 16 15 13 12 12 11 11 11 11 10 10 11 11 12 14 16 18 17 13 10 12 16 18 17 13 11 15 17 16 14 13 12 13 14 13 14 16 16 15 14 15 16 18 18 17
9 8 8 8 8 8 8 8 9 9 9 9 9 8 8 8 8 8 9 10 10 10 9 7 6 6 9 12 15 16 15 14 14 16 17 17 18 18 18 17 16 14 12 12 11 11 11 11 10 10 11 11 12 14 17 19 17 13 10 12 16 17 16 14 13 12 14 15 14 14 14 14 14 14 13 15 17 16 14 15 16 18 18 17 16
9 8 8 9 9 9 9 9 9 9 9 9 8 8 8 8 9 10 11 11 9 7 5 6 8 12 15 16 16 15 14 15 16 18 18 18 19 19 17 15 14 12 11 10 10 10 11 10 10 10 11 12 14 18 20 17 13 11 13 16 17 14 13 14 14 13 14 14 14 14 15 15 14 14 15 16 16 15 15 16 18 18 18 17 16
8 9 9 10 9 9 9 9 9 9 9 8 8 9 9 10 11 11 10 7 5 6 8 12 14 16 15 15 15 15 16 17 17 18 19 19 18 17 16 14 12 11 10 10 10 10 10 10 10 10 11 14 18 20 18 12 11 14 17 17 14 12 13 15 15 14 13 14 14 15 16 15 15 15 15 16 16 15 15 16 17 17 17 17 16
Height
5571 5572 5573 5574 5575 5576 5578 5579 5580 5581 5583 5584 5585 5586 5587 5589 5589 5589 5590 5590 5590 5591 5591 5591 5591 5591 5591 5591 5591 5590 5590 5589 5589 5588 5587 5587 5586 5585 5584 5583 5582 5581 5580 5579 5578 5577 5576 5575 5574 5573 5571 5570 5569 5567 5565 5563 5562 5559 5557 5555 5553 5550 5548 5546 5544 5542 5539 5536 5533 5531 5527 5524 5520 5517 5513 5509 5506 5504 5501 5498 5495 5492 5489 5485 5481
5564 5564 5565 5566 5567 5568 5570 5571 5572 5573 5575 5576 5577 5578 5579 5580 5581 5581 5581 5581 5582 5582 5582 5583 5583 5583 5583 5583 5582 5582 5582 5581 5580 5580 5579 5578 5577 5577 5576 5575 5574 5573 5572 5571 5570 5569 5568 5567 5565 5564 5563 5562 5560 5558 5557 5554 5552 5550 5548 5546 5543 5541 5539 5537 5535 5532 5530 5527 5524 5521 5518 5515 5510 5506 5503 5499 5495 5492 5489 5487 5484 5480 5477 5474 5469
5557 5557 5558 5559 5560 5561 5562 5563 5564 5566 5567 5568 5569 5570 5571 5572 5573 5574 5574 5574 5574 5574 5574 5575 5575 5575 5575 5574 5574 5574 5573 5573 5572 5571 5571 5570 5569 5568 5568 5566 5565 5564 5563 5562 5561 5560 5559 5558 5557 5556 5555 5553 5551 5550 5548 5546 5543 5541 5539 5537 5535 5532 5530 5528 5525 5522 5520 5517 5514 5511 5507 5505 5502 5497 5493 5489 5486 5481 5477 5474 5471 5467 5463 5461 5458
5549 5550 5551 5552 5553 5553 5554 5556 5557 5558 5559 5560 5561 5562 5563 5564 5565 5566 5566 5567 5567 5567 5567 5566 5566 5566 5566 5566 5565 5565 5565 5564 5564 5563 5563 5562 5561 5560 5559 5558 5557 5556 5555 5554 5553 5552 5551 5550 5549 5547 5546 5545 5543 5541 5539 5537 5535 5533 5531 5528 5526 5523 5521 5518 5515 5512 5509 5506 5504 5501 5498 5495 5492 5489 5483 5478 5475 5471 5467 5462 5459 5454 5449 5446 5445
5542 5543 5544 5545 5546 5546 5547 5548 5550 5551 5552 5552 5553 5554 5555 5556 5556 5557 5558 5558 5558 5558 5558 5557 5557 5557 5557 5557 5557 5556 5556 5556 5556 5555 5555 5554 5553 5552 5551 5550 5549 5548 5547 5546 5545 5544 5543 5542 5540 5539 5538 5536 5534 5533 5531 5529 5527 5524 5522 5520 5517 5514 5511 5508 5505 5502 5499 5496 5494 5492 5489 5485 5481 5478 5474 5469 5463 5460 5456 5451 5447 5443 5436 5431 5430
5534 5535 5536 5538 5539 5539 5540 5541 5542 5543 5544 5545 5545 5546 5547 5547 5548 5548 5549 5549 5549 5549 5549 5549 5548 5548 5548 5548 5548 5548 5548 5548 5548 5547 5547 5545 5544 5543 5542 5541 5540 5540 5539 5538 5537 5536 5535 5533 5532 5531 5529 5528 5526 5524 5522 5521 5518 5516 5513 5511 5508 5505 5502 5499 5497 5494 5491 5487 5484 5481 5478 5475 5471 5466 5463 5459 5453 5449 5446 5441 5435 5431 5425 5419 5415
5527 5528 5529 5531 5532 5532 5533 5534 5535 5536 5537 5537 5538 5538 5539 5539 5540 5540 5540 5541 5541 5541 5541 5540 5540 5540 5540 5540 5540 5539 5539 5539 5539 5539 5538 5537 5536 5535 5534 5533 5532 5532 5531 5530 5529 5528 5527 5525 5524 5523 5521 5520 5518 5516 5514 5512 5509 5507 5505 5502 5500 5497 5494 5491 5488 5485 5482 5478 5474 5470 5467 5464 5461 5456 5451 5448 5443 5438 5436 5433 5427 5420 5414 5407 5402
5521 5521 5522 5523 5524 5525 5526 5527 5527 5528 5529 5530 5530 5530 5530 5531 5531 5532 5532 5533 5533 5533 5533 5532 5532 5531 5531 5531 5531 5531 5531 5530 5530 5530 5529 5529 5528 5527 5526 5525 5525 5524 5523 5523 5522 5520 5519 5518 5517 5515 5513 5511 5509 5507 5505 5503 5500 5498 5496 5494 5491 5488 5485 5482 5478 5475 5472 5468 5464 5460 5456 5453 5450 5446 5441 5437 5432 5427 5423 5422 5419 5413 5405 5397 5389
5514 5514 5515 5516 5517 5518 5519 5520 5520 5521 5521 5522 5522 5522 5523 5523 5523 5524 5525 5525 5525 5525 5524 5524 5524 5523 5523 5523 5523 5523 5523 5522 5522 5522 5522 5521 5521 5520 5519 5518 5518 5517 5516 5515 5514 5513 5512 5510 5509 5507 5505 5502 5500 5498 5496 5494 5492 5490 5488 5485 5482 5479 5476 5472 5468 5464 5461 5458 5455 5450 5446 5442 5439 5436 5431 5426 5422 5416 5412 5410 5407 5402 5396 5390 5379
5507 5508 5508 5509 5510 5511 5512 5512 5513 5514 5514 5515 5515 5516 5516 5516 5516 5517 5517 5517 5517 5516 5516 5516 5516 5516 5516 5516 5516 5516 5516 5516 5516 5516 5515 5515 5514 5513 5512 5512 5511 5510 5509 5508 5506 5505 5504 5502 5500 5498 5496 5494 5492 5489 5487 5485 5483 5481 5478 5476 5472 5469 5466 5462 5458 5454 5450 5447 5445 5441 5437 5431 5428 5426 5421 5416 5411 5406 5402 5399 5395 5390 5384 5380 5372
5501 5501 5502 5503 5503 5504 5505 5506 5507 5508 5508 5509 5509 5509 5510 5510 5510 5510 5510 5510 5510 5510 5510 5510 5510 5510 5510 5510 5510 5510 5510 5510 5510 5510 5509 5509 5508 5507 5506 5505 5504 5503 5501 5500 5498 5497 5495 5493 5491 5489 5487 5485 5483 5481 5479 5477 5474 5472 5469 5466 5462 5459 5456 5453 5449 5445 5441 5437 5434 5431 5427 5421 5417 5415 5411 5407 5402 5395 5391 5387 5383 5379 5372 5367 5363
5495 5495 5496 5497 5497 5499 5500 5500 5501 5502 5502 5503 5503 5503 5503 5503 5504 5504 5504 5504 5504 5504 5504 5504 5504 5504 5504 5504 5504 5504 5504 5504 5504 5504 5503 5502 5501 5499 5498 5497 5496 5495 5493 5492 5490 5489 5487 5485 5484 5482 5479 5477 5475 5472 5470 5467 5465 5463 5460 5456 5453 5450 5447 5444 5440 5435 5431 5427 5423 5420 5418 5413 5407 5404 5400 5397 5392 5385 5380 5376 5371 5366 5360 5353 5349
5489 5490 5490 5491 5492 5493 5494 5495 5496 5496 5497 5497 5497 5497 5498 5498 5498 5498 5498 5499 5499 5499 5499 5499 5499 5498 5498 5498 5498 5497 5497 5497 5497 5497 5496 5495 5493 5492 5491 5490 5489 5487 5486 5485 5483 5482 5480 5478 5476 5474 5471 5469 5466 5463 5460 5458 5456 5454 5451 5447 5444 5441 5439 5435 5431 5426 5421 5417 5413 5409 5406 5403 5398 5393 5389 5386 5382 5374 5368 5365 5359 5353 5347 5339 5333
5484 5484 5485 5485 5486 5487 5488 5489 5490 5490 5491 5491 5491 5492 5492 5492 5492 5492 5493 5493 5493 5493 5493 5493 5492 5492 5492 5491 5491 5491 5490 5490 5490 5490 5489 5488 5486 5485 5484 5483 5482 5480 5479 5478 5476 5474 5473 5470 5468 5465 5463 5460 5457 5454 5451 5449 5447 5446 5442 5438 5435 5432 5429 5425 5421 5417 5412 5408 5404 5398 5394 5391 5387 5383 5379 5375 5370 5363 5357 5353 5347 5341 5335 5328 5320
5478 5479 5480 5480 5481 5482 5482 5483 5484 5485 5485 5485 5486 5486 5486 5486 5486 5486 5486 5487 5486 5486 5486 5486 5486 5486 5485 5485 5484 5484 5483 5483 5483 5484 5483 5481 5479 5478 5477 5476 5475 5473 5472 5470 5468 5467 5465 5462 5460 5457 5455 5452 5449 5445 5443 5440 5439 5437 5433 5429 5425 5423 5419 5415 5411 5407 5402 5398 5395 5390 5384 5380 5376 5372 5367 5363 5359 5352 5344 5340 5335 5329 5324 5318 5312
5473 5474 5475 5475 5476 5477 5477 5478 5478 5479 5479 5480 5480 5480 5480 5480 5480 5480 5481 5481 5480 5480 5480 5480 5480 5480 5479 5478 5478 5477 5477 5476 5476 5477 5477 5475 5473 5471 5470 5469 5468 5466 5464 5462 5461 5459 5457 5455 5452 5450 5447 5444 5441 5437 5434 5431 5430 5428 5423 5419 5415 5413 5409 5405 5401 5397 5393 5389 5385 5380 5375 5370 5365 5361 5356 5352 5348 5343 5335 5329 5324 5319 5314 5309 5304
5467 5468 5469 5470 5471 5471 5472 5472 5473 5473 5474 5474 5474 5474 5474 5474 5475 5475 5475 5475 5475 5475 5474 5474 5474 5474 5473 5472 5471 5471 5470 5469 5468 5469 5470 5469 5466 5464 5463 5462 5461 5459 5457 5455 5453 5452 5450 5447 5445 5442 5440 5436 5433 5429 5425 5423 5421 5418 5413 5408 5405 5403 5399 5395 5390 5386 5382 5378 5374 5370 5366 5361 5355 5350 5345 5340 5336 5332 5326 5320 5314 5308 5304 5299 5295
5462 5463 5464 5465 5465 5466 5466 5467 5468 5468 5468 5469 5469 5469 5469 5469 5469 5469 5469 5469 5469 5469 5469 5468 5468 5468 5467 5466 5466 5465 5465 5463 5462 5462 5463 5463 5460 5457 5456 5455 5453 5452 5450 5448 5446 5444 5443 5440 5438 5435 5432 5429 5425 5421 5416 5414 5412 5408 5403 5398 5394 5392 5389 5385 5380 5375 5371 5367 5363 5359 5354 5350 5345 5339 5334 5329 5324 5320 5314 5309 5304 5298 5293 5288 5283
5457 5457 5458 5459 5460 5461 5461 5462 5462 5463 5463 5463 5463 5464 5464 5464 5464 5464 5464 5464 5464 5463 5463 5463 5463 5462 5462 5461 5460 5460 5459 5457 5456 5455 5456 5456 5454 5451 5449 5447 5446 5444 5443 5441 5439 5437 5435 5433 5430 5428 5425 5422 5418 5413 5407 5405 5403 5399 5394 5388 5383 5380 5378 5375 5369 5365 5360 5356 5352 5347 5342 5339 5334 5329 5323 5318 5314 5309 5303 5298 5293 5288 5283 5278 5273
5451 5452 5453 5454 5455 5456 5456 5457 5457 5457 5457 5458 5458 5458 5458 5458 5458 5459 5459 5459 5459 5458 5458 5458 5457 5457 5456 5456 5455 5454 5453 5452 5450 5449 5449 5449 5448 5445 5443 5441 5439 5437 5435 5433 5431 5429 5427 5425 5423 5420 5417 5414 5410 5406 5400 5396 5394 5390 5386 5380 5374 5370 5367 5364 5359 5354 5350 5345 5340 5335 5331 5327 5323 5317 5312 5308 5303 5298 5293 5289 5283 5278 5274 5269 5264
5446 5447 5448 5449 5450 5450 5451 5451 5452 5452 5452 5452 5453 5453 5453 5453 5453 5453 5453 5453 5453 5453 5453 5452 5452 5451 5451 5450 5449 5448 5447 5446 5445 5443 5442 5442 5442 5440 5437 5434 5432 5430 5428 5426 5423 5421 5419 5417 5414 5412 5409 5405 5402 5398 5392 5388 5385 5381 5377 5373 5368 5362 5358 5354 5349 5345 5340 5335 5330 5325 5320 5316 5312 5307 5302 5298 5293 5288 5284 5279 5275 5270 5265 5260 5256
5440 5441 5443 5444 5445 5446 5446 5446 5447 5447 5447 5448 5448 5448 5448 5448 5448 5448 5448 5448 5448 5447 5447 5447 5446 5445 5445 5444 5443 5442 5441 5440 5439 5437 5435 5434 5434 5434 5431 5428 5425 5423 5421 5419 5416 5413 5411 5408 5405 5402 5399 5396 5393 5390 5385 5381 5377 5373 5369 5365 5361 5355 5350 5345 5340 5335 5330 5325 5320 5315 5311 5307 5303 5297 5293 5288 5284 5279 5274 5270 5266 5262 5257 5251 5246
5435 5436 5438 5439 5440 5441 5441 5442 5442 5442 5442 5442 5442 5442 5443 5443 5443 5442 5442 5442 5442 5442 5441 5441 5440 5440 5439 5438 5437 5436 5435 5434 5433 5431 5429 5427 5426 5426 5425 5422 5419 5417 5414 5412 5409 5407 5403 5400 5397 5393 5390 5387 5384 5381 5378 5373 5369 5365 5361 5357 5353 5348 5343 5338 5333 5328 5322 5317 5312 5307 5302 5299 5294 5289 5284 5279 5275 5270 5266 5261 5257 5253 5248 5243 5236
5430 5432 5433 5434 5434 5435 5436 5436 5437 5437 5437 5437 5437 5437 5437 5437 5437 5437 5437 5437 5436 5436 5436 5435 5435 5434 5433 5432 5431 5430 5429 5428 5426 5425 5423 5421 5419 5419 5418 5416 5413 5410 5407 5405 5402 5399 5396 5392 5388 5385 5381 5378 5375 5371 5368 5365 5361 5357 5353 5349 5344 5339 5335 5330 5325 5320 5315 5310 5305 5299 5294 5290 5285 5281 5276 5271 5266 5262 5258 5253 5248 5244 5240 5235 5228
5426 5426 5427 5428 5429 5430 5430 5431 5431 5431 5432 5432 5432 5432 5432 5432 5432 5431 5431 5431 5431 5430 5430 5429 5429 5428 5427 5426 5425 5424 5423 5421 5420 5418 5417 5415 5412 5411 5409 5408 5406 5403 5400 5397 5394 5391 5387 5384 5380 5376 5373 5369 5366 5362 5359 5356 5352 5348 5345 5341 5336 5331 5326 5322 5317 5312 5307 5301 5296 5291 5286 5282 5277 5272 5268 5263 5258 5254 5250 5245 5240 5235 5231 5227 5220
5421 5421 5422 5423 5424 5425 5425 5426 5426 5426 5426 5426 5426 5426 5426 5426 5426 5426 5426 5425 5425 5424 5424 5423 5423 5422 5421 5420 5419 5418 5417 5415 5414 5412 5410 5408 5406 5404 5401 5399 5397 5395 5392 5389 5386 5382 5379 5375 5371 5368 5364 5360 5357 5353 5350 5347 5343 5340 5336 5332 5327 5322 5318 5313 5308 5303 5299 5293 5288 5283 5279 5274 5269 5264 5260 5256 5251 5247 5243 5239 5234 5228 5223 5219 5214
5416 5417 5418 5418 5419 5419 5420 5420 5421 5421 5421 5421 5421 5421 5421 5421 5421 5420 5420 5420 5419 5419 5418 5417 5417 5416 5415 5414 5413 5412 5411 5410 5408 5406 5404 5402 5400 5398 5395 5393 5390 5387 5384 5381 5378 5375 5371 5367 5364 5360 5356 5353 5349 5346 5342 5338 5334 5331 5327 5323 5318 5314 5309 5304 5299 5295 5290 5285 5280 5276 5271 5267 5262 5257 5253 5248 5244 5239 5236 5232 5227 5222 5217 5212 5207
5412 5412 5413 5413 5414 5414 5415 5415 5416 5416 5416 5416 5416 5416 5416 5415 5415 5415 5415 5414 5413 5413 5412 5411 5410 5410 5409 5408 5407 5406 5405 5404 5402 5400 5398 5396 5394 5391 5389 5386 5383 5380 5377 5374 5371 5368 5364 5361 5357 5353 5350 5346 5342 5339 5335 5330 5326 5322 5318 5314 5309 5305 5301 5296 5292 5287 5283 5278 5274 5269 5265 5260 5256 5251 5246 5242 5236 5232 5228 5224 5220 5216 5210 5205 5200
5407 5408 5408 5409 5409 5409 5410 5410 5410 5411 5411 5411 5411 5410 5410 5410 5410 5409 5409 5408 5408 5407 5406 5406 5405 5404 5403 5402 5401 5400 5399 5398 5396 5394 5392 5390 5388 5385 5382 5380 5377 5374 5370 5367 5364 5361 5358 5354 5351 5347 5343 5339 5335 5331 5327 5323 5319 5314 5310 5305 5301 5297 5293 5289 5285 5280 5276 5272 5268 5263 5259 5254 5250 5245 5240 5235 5230 5224 5220 5216 5212 5208 5203 5198 5192
5403 5403 5403 5404 5404 5404 5405 5405 5405 5405 5405 5405 5405 5405 5405 5405 5404 5404 5403 5403 5402 5402 5401 5400 5399 5399 5397 5396 5395 5394 5393 5392 5390 5388 5386 5383 5381 5378 5376 5373 5370 5367 5364 5360 5357 5353 5350 5346 5343 5340 5335 5331 5327 5323 5319 5315 5311 5306 5301 5297 5293 5289 5285 5281 5278 5274 5270 5266 5261 5257 5252 5248 5244 5239 5234 5229 5224 5218 5212 5208 5205 5201 5196 5190 5185
5398 5398 5398 5399 5399 5399 5400 5400 5400 5400 5400 5400 5400 5400 5399 5399 5399 5398 5398 5397 5397 5396 5395 5395 5394 5393 5392 5390 5389 5388 5387 5385 5383 5381 5379 5377 5374 5372 5369 5367 5364 5360 5356 5353 5349 5345 5341 5338 5335 5332 5328 5323 5319 5315 5311 5307 5303 5298 5293 5289 5285 5281 5278 5274 5270 5266 5262 5258 5254 5250 5245 5241 5237 5232 5227 5223 5217 5211 5205 5201 5197 5193 5188 5183 5178
5393 5393 5393 5394 5394 5394 5394 5394 5394 5395 5395 5395 5394 5394 5394 5393 5393 5393 5392 5392 5391 5390 5390 5389 5388 5387 5385 5384 5383 5381 5380 5379 5377 5375 5372 5370 5367 5364 5362 5359 5356 5353 5349 5345 5341 5337 5333 5329 5326 5323 5319 5315 5311 5307 5303 5299 5295 5290 5286 5282 5277 5273 5270 5266 5262 5259 5255 5251 5246 5242 5237 5233 5230 5225 5220 5215 5211 5205 5199 5194 5190 5186 5181 5176 5172
5388 5388 5388 5388 5389 5389 5389 5389 5389 5389 5389 5389 5389 5388 5388 5388 5387 5387 5387 5386 5385 5385 5384 5383 5382 5380 5379 5378 5377 5375 5374 5372 5370 5368 5365 5362 5360 5357 5354 5352 5349 5345 5341 5337 5333 5329 5325 5322 5318 5315 5311 5307 5303 5299 5295 5291 5288 5284 5279 5275 5271 5266 5262 5259 5255 5251 5247 5243 5239 5234 5230 5226 5222 5218 5213 5208 5203 5198 5193 5188 5184 5179 5175 5171 5166
5382 5383 5383 5383 5383 5384 5384 5384 5384 5384 5384 5383 5383 5383 5383 5382 5382 5381 5381 5380 5380 5379 5378 5377 5375 5374 5373 5372 5370 5369 5367 5365 5363 5361 5358 5355 5353 5350 5347 5344 5341 5338 5334 5330 5326 5322 5318 5315 5311 5307 5304 5300 5296 5292 5288 5284 5280 5277 5273 5269 5264 5260 5256 5252 5248 5244 5240 5236 5231 5227 5223 5218 5214 5210 5206 5201 5196 5191 5186 5182 5178 5173 5169 5165 5162
5377 5378 5378 5378 5378 5379 5379 5378 5378 5378 5378 5378 5378 5378 5377 5377 5376 5376 5375 5374 5373 5373 5372 5371 5369 5368 5367 5365 5364 5362 5361 5358 5356 5354 5351 5348 5346 5343 5340 5337 5334 5331 5328 5324 5319 5315 5311 5308 5304 5300 5296 5292 5289 5285 5281 5277 5273 5270 5266 5262 5258 5253 5249 5245 5241 5237 5233 5229 5224 5220 5216 5211 5207 5203 5199 5195 5189 5184 5180 5176 5172 5168 5164 5160 5156
5372 5372 5373 5373 5373 5373 5373 5373 5373 5373 5373 5373 5372 5372 5372 5371 5371 5370 5369 5368 5367 5366 5365 5364 5363 5362 5360 5359 5357 5356 5354 5352 5349 5347 5344 5341 5339 5336 5333 5330 5327 5324 5320 5317 5312 5308 5304 5301 5297 5293 5289 5285 5282 5278 5275 5271 5267 5263 5259 5255 5251 5247 5243 5239 5235 5231 5227 5222 5218 5213 5209 5204 5200 5196 5192 5188 5182 5177 5174 5170 5167 5163 5159 5155 5151
5367 5367 5367 5367 5368 5368 5368 5368 5367 5367 5367 5367 5367 5366 5366 5365 5365 5364 5363 5362 5361 5360 5359 5358 5356 5355 5353 5352 5350 5349 5347 5345 5342 5340 5337 5334 5332 5329 5326 5322 5319 5316 5312 5309 5305 5301 5297 5293 5290 5286 5282 5278 5275 5271 5267 5264 5260 5256 5252 5249 5245 5241 5237 5233 5228 5224 5220 5216 5212 5207 5202 5197 5193 5189 5185 5180 5176 5172 5168 5165 5162 5158 5154 5150 5146
5361 5361 5362 5362 5362 5362 5362 5362 5362 5362 5361 5361 5361 5360 5360 5359 5359 5358 5357 5356 5355 5354 5353 5351 5350 5348 5347 5345 5343 5342 5340 5338 5335 5332 5330 5327 5324 5321 5318 5315 5311 5308 5305 5301 5298 5293 5289 5285 5282 5278 5274 5271 5267 5264 5261 5257 5254 5250 5247 5243 5239 5235 5231 5227 5222 5218 5214 5210 5205 5200 5196 5191 5186 5182 5178 5173 5170 5167 5163 5160 5157 5154 5150 5146 5142
5356 5356 5356 5356 5357 5357 5357 5356 5356 5356 5356 5355 5355 5355 5354 5353 5353 5352 5351 5350 5349 5348 5347 5345 5343 5341 5340 5338 5336 5334 5332 5330 5328 5325 5323 5320 5317 5314 5311 5307 5304 5300 5297 5293 5290 5286 5281 5277 5274 5270 5267 5264 5261 5258 5255 5252 5248 5245 5241 5237 5233 5229 5225 5221 5217 5212 5208 5203 5199 5194 5189 5184 5180 5176 5172 5168 5165 5162 5159 5156 5152 5149 5146 5143 5139
5350 5350 5351 5351 5351 5351 5351 5351 5351 5350 5350 5350 5349 5349 5348 5348 5347 5346 5345 5344 5343 5341 5340 5338 5336 5334 5332 5331 5329 5327 5325 5323 5320 5318 5315 5313 5310 5306 5303 5299 5296 5293 5289 5286 5282 5278 5274 5270 5267 5264 5261 5258 5255 5252 5249 5246 5243 5239 5235 5231 5227 5223 5219 5215 5211 5207 5202 5197 5193 5188 5183 5178 5174 5170 5166 5163 5160 5158 5155 5152 5149 5145 5142 5139 5136
5344 5345 5345 5345 5345 5345 5345 5345 5345 5345 5344 5344 5343 5343 5342 5341 5341 5340 5339 5338 5336 5335 5333 5332 5330 5327 5325 5323 5321 5319 5317 5315 5312 5310 5307 5305 5302 5299 5295 5291 5288 5285 5282 5279 5275 5272 5268 5264 5261 5258 5255 5252 5249 5246 5243 5240 5237 5233 5229 5225 5221 5217 5213 5209 5205 5201 5197 5192 5187 5182 5177 5173 5169 5165 5162 5159 5157 5154 5151 5148 5145 5142 5139 5135 5132
5339 5339 5339 5339 5339 5339 5339 5339 5339 5339 5338 5338 5337 5337 5336 5335 5334 5333 5332 5331 5330 5328 5327 5325 5323 5320 5318 5316 5314 5311 5309 5307 5305 5302 5299 5297 5294 5291 5288 5284 5281 5278 5275 5272 5269 5265 5262 5258 5255 5252 5249 5246 5243 5240 5237 5234 5231 5228 5224 5219 5215 5211 5208 5204 5200 5196 5191 5187 5182 5177 5172 5168 5165 5162 5159 5156 5154 5151 5148 5145 5142 5139 5136 5133 5130
5333 5333 5333 5333 5333 5333 5333 5333 5333 5332 5332 5331 5331 5330 5329 5328 5327 5327 5326 5324 5323 5321 5320 5318 5316 5314 5311 5309 5306 5304 5301 5299 5297 5294 5292 5289 5286 5283 5280 5277 5274 5271 5268 5265 5262 5259 5256 5252 5249 5246 5243 5240 5237 5234 5231 5229 5226 5222 5218 5214 5210 5206 5202 5199 5195 5191 5186 5182 5177 5172 5168 5164 5161 5158 5156 5153 5151 5148 5145 5142 5139 5136 5133 5130 5127
5326 5327 5327 5327 5327 5327 5327 5326 5326 5326 5325 5325 5324 5323 5322 5321 5321 5320 5318 5317 5316 5315 5313 5311 5309 5307 5304 5302 5299 5297 5294 5291 5289 5286 5284 5281 5278 5275 5272 5269 5266 5264 5261 5258 5255 5253 5250 5246 5243 5240 5237 5234 5232 5229 5226 5223 5220 5217 5213 5209 5205 5201 5197 5194 5190 5186 5182 5178 5173 5169 5165 5161 5158 5156 5153 5150 5148 5145 5142 5139 5136 5133 5130 5127 5124
5321 5321 5321 5321 5320 5320 5320 5320 5319 5319 5318 5318 5317 5316 5315 5314 5314 5312 5311 5310 5309 5307 5306 5304 5302 5300 5297 5295 5292 5289 5287 5284 5281 5278 5276 5273 5270 5267 5264 5261 5259 5256 5254 5251 5249 5246 5244 5241 5238 5235 5232 5229 5226 5223 5220 5217 5214 5211 5207 5204 5200 5196 5193 5189 5186 5182 5178 5174 5170 5166 5162 5159 5156 5153 5151 5148 5145 5142 5139 5136 5133 5130 5127 5124 5122
5314 5314 5314 5314 5314 5314 5313 5313 5313 5312 5311 5311 5310 5309 5308 5307 5306 5305 5304 5303 5301 5300 5298 5297 5294 5292 5290 5288 5285 5282 5279 5276 5273 5271 5268 5265 5263 5260 5257 5254 5251 5249 5247 5245 5242 5240 5238 5235 5233 5230 5226 5224 5221 5218 5215 5212 5208 5205 5202 5199 5195 5192 5188 5185 5181 5177 5174 5170 5166 5163 5159 5156 5153 5151 5148 5145 5142 5140 5136 5133 5130 5128 5125 5122 5120
5308 5308 5308 5308 5307 5307 5307 5306 5306 5305 5305 5304 5303 5302 5301 5300 5299 5298 5296 5295 5293 5292 5290 5289 5287 5285 5283 5281 5278 5275 5272 5269 5266 5263 5261 5258 5255 5253 5250 5247 5245 5243 5240 5238 5236 5234 5232 5230 5227 5225 5221 5219 5216 5213 5210 5206 5203 5200 5197 5194 5190 5187 5183 5180 5177 5173 5170 5166 5163 5160 5157 5154 5151 5148 5145 5142 5140 5137 5134 5131 5128 5126 5123 5120 5118
5301 5301 5301 5301 5301 5300 5300 5299 5299 5298 5297 5297 5296 5295 5294 5292 5291 5290 5289 5287 5286 5284 5283 5281 5279 5277 5275 5273 5270 5268 5265 5262 5259 5256 5254 5251 5249 5246 5243 5241 5239 5237 5234 5232 5231 5229 5226 5224 5222 5219 5216 5214 5211 5208 5204 5201 5198 5195 5192 5189 5185 5182 5179 5176 5173 5169 5166 5163 5160 5157 5154 5151 5149 5146 5143 5140 5137 5135 5132 5129 5126 5124 5121 5119 5116
5295 5294 5294 5294 5294 5293 5293 5292 5291 5291 5290 5289 5288 5287 5286 5285 5284 5282 5281 5279 5278 5277 5275 5273 5271 5269 5267 5265 5262 5260 5257 5254 5252 5249 5247 5245 5242 5240 5237 5235 5233 5231 5229 5227 5225 5223 5221 5218 5216 5214 5211 5209 5206 5203 5199 5196 5193 5190 5187 5184 5181 5178 5175 5172 5168 5166 5163 5160 5157 5154 5151 5149 5146 5143 5140 5138 5135 5133 5130 5127 5125 5123 5120 5118 5115
5288 5288 5287 5287 5286 5286 5285 5285 5284 5283 5283 5282 5281 5280 5279 5277 5276 5275 5273 5272 5270 5269 5267 5265 5263 5261 5259 5256 5254 5252 5249 5247 5244 5242 5240 5238 5236 5233 5231 5229 5227 5226 5224 5221 5219 5217 5215 5213 5210 5208 5206 5203 5200 5197 5195 5192 5189 5186 5183 5179 5176 5173 5170 5168 5165 5162 5159 5157 5154 5151 5149 5146 5143 5140 5138 5136 5133 5131 5128 5126 5124 5121 5119 5117 5114
5281 5281 5280 5280 5279 5279 5278 5277 5277 5276 5275 5274 5273 5272 5271 5270 5268 5267 5266 5264 5263 5261 5259 5257 5255 5253 5251 5249 5246 5244 5242 5239 5237 5235 5233 5231 5229 5227 5226 5224 5222 5220 5218 5216 5214 5212 5210 5207 5205 5203 5200 5198 5195 5192 5190 5187 5185 5181 5178 5175 5172 5169 5167 5164 5161 5159 5156 5154 5151 5149 5146 5143 5141 5138 5136 5134 5131 5129 5127 5124 5122 5120 5118 5116 5114